64P/Swift-Gehrels (2018)

Japanese version
Home page
Updated on June 11, 2016

---------------------------------------------------------------------

* Profile

* Orbital Elements

Epoch 2018 Nov. 18.0 TT = JDT 2458440.5
T 2018 Nov. 3.86049 TT                                  Kobayashi
q   1.3931983            (2000.0)            P               Q
n   0.10471037     Peri.   97.15065     +0.78661976     -0.60256307
a   4.4580293      Node   299.99730     +0.48711326     +0.73970241
e   0.6874856      Incl.    8.94851     +0.37940747     +0.29959655
P   9.41
From 219 observations 1981 July 31-2010 May 4, mean residual 0".7.
     Nongravitational parameters A1 = +0.25, A2 = +0.0389.

* Finding Charts

* Magnitudes Graph

        m1 = 9.5 + 5 log d + 15.0 log r

---------------------------------------------------------------------

The orbital elements are published on M.P.E.C. 2015-M77.
The charts are made with StellaNavigator Ver.8 (AstroArts).
The magnitudes graphs are made with Comet for Windows.

---------------------------------------------------------------------

Copyright(C) Seiichi Yoshida (comet@aerith.net). All rights reserved.